Home   Weather   Hermosillo   Past weeks

Flag for Mexico Past Weather in Hermosillo, Sonora, Mexico — Yesterday and Last 2 Weeks

Now
99 °F

Scattered clouds.


Feels Like: 112 °F
Forecast: 79 / 96 °F
Wind: 8 mph from Southwest

Location: Hermosillo Airport

Current Time: Aug 18, 2017 at 3:20:02 pm

Latest Report: Aug 18, 2017 at 1:47 pm


Visibility: 10 mi

Pressure: 29.88 "Hg

Humidity: 47%

Dew Point: 75 °F

Location of HermosilloLocation

Past Weather in Hermosillo — Graph

°F

Hermosillo Temperature Yesterday

Maximum temperature yesterday: 106 °F (at 2:45 pm)
Minimum temperature yesterday: 82 °F (at 4:47 am)
Average temperature yesterday: 92 °F

High & Low Weather Summary for the Past Weeks

 TemperatureHumidityPressure
High106 °F (Aug 8, 3:40 pm)100% (Aug 11, 5:40 am)29.98 "Hg (Aug 11, 5:40 am)
Low73 °F (Aug 9, 10:00 pm)23% (Aug 17, 3:49 pm)29.70 "Hg (Aug 8, 4:43 pm)
Average91 °F61%29.87 "Hg
* Reported Aug 3 1:45 pm — Aug 18 1:47 pm, Hermosillo. Weather by CustomWeather, © 2017

Note: Actual official high and low records may vary slightly from our data, if they occured in-between our weather recording intervals... More about our weather records

Advertising

Hermosillo Weather History for the Previous 24 Hours

Scroll right to see more
 ConditionsComfort  
Time TempWeatherWind HumidityBarometerVisibility
1:47 pm
Fri, Aug 18
99 °FScattered clouds.8 mph47%29.88 "Hg10 mi
12:42 pm97 °FBroken clouds.6 mph50%29.93 "Hg10 mi
11:42 am93 °FBroken clouds.5 mph53%29.95 "Hg10 mi
10:46 am91 °FBroken clouds.6 mph59%29.94 "Hg10 mi
9:41 am91 °FPartly sunny.5 mph59%29.97 "Hg10 mi
8:40 am86 °FPartly sunny.8 mph70%29.98 "Hg10 mi
7:48 am86 °FOvercast.6 mph70%29.95 "Hg10 mi
6:42 am84 °FOvercast.5 mph74%29.96 "Hg10 mi
5:40 am84 °FPassing clouds.5 mph79%29.94 "Hg10 mi
4:43 am84 °FPassing clouds.9 mph74%29.91 "Hg10 mi
3:41 am84 °FPassing clouds.3 mph74%29.92 "Hg10 mi
2:45 am84 °FPassing clouds.7 mph74%29.94 "Hg10 mi
1:43 am86 °FPartly cloudy.No wind66%29.91 "Hg10 mi
12:42 am88 °FMostly cloudy.3 mph55%29.95 "Hg10 mi
11:43 pm
Thu, Aug 17
88 °FMostly cloudy.5 mph55%29.95 "Hg10 mi
10:43 pm86 °FOvercast.6 mph66%29.91 "Hg10 mi
9:40 pm88 °FOvercast.6 mph75%29.93 "Hg10 mi
8:40 pm90 °FOvercast.8 mph63%29.91 "Hg10 mi
7:47 pm91 °FPassing clouds.8 mph59%29.86 "Hg10 mi
6:50 pm95 °FPartly sunny.13 mph53%29.87 "Hg10 mi
5:52 pm99 °FPartly sunny.16 mph37%29.86 "Hg10 mi
4:51 pm100 °FPartly sunny.17 mph37%29.82 "Hg10 mi
3:49 pm104 °FPartly sunny.9 mph23%29.84 "Hg10 mi
Weather by CustomWeather, © 2017

See weather overviewHow to use our weather pages